{"data":{"norad_id":57966,"intl_designator":"2023-151C","name":"STARLINK-30521","alt_names":[],"object_type":"PAYLOAD","status":"ACTIVE","operator":null,"country":"US","launch_date":"2023-09-30","launch_site_code":"AFETR","launch_vehicle":null,"mission":null,"orbit_class":"UNKNOWN","rcs_meters":null,"size_class":null,"mass_kg":null,"dimensions":null,"purposes":["comms"],"wikipedia_slug":null,"has_3d_model":false,"image_url":null,"decayed_at":null,"tle_current":{"epoch":"2026-05-25T00:37:40.743264Z","epoch_age_seconds":79705,"freshness":"FRESH","line1":"1 57966U 23151C   26145.02616601  .00000374  00000+0  23105-4 0  9993","line2":"2 57966  43.0022 264.6818 0001376 264.9464  95.1231 15.27581193147446","mean_motion":15.27581193,"eccentricity":0.0001376,"inclination_deg":43.0022,"raan_deg":264.6818,"arg_perigee_deg":264.9464,"mean_anomaly_deg":95.1231,"bstar":2.3105e-5,"rev_number":14744,"period_min":94.266675093846,"perigee_km":482.10142505553,"apogee_km":483.98962248607,"semimajor_km":6861.1825237708,"source":"CELESTRAK","updated_at":"2026-05-25T13:38:18.483499Z"}}}